EW6902 Weather Reports


time (UTC)temp
C
wind
direction
speed
KPH
gust
KPH
rain 1hr
cm
rain 24hr
cm
rain mn
cm
humidity
%
barometer
mb
20260831210504 32 57 1.6 4.8 0.00 0.00 0.00 56 1019.8
20260831210003 32 17 1.6 4.8 0.00 0.00 0.00 58 1019.8
20260831205503 32 138 1.6 3.2 0.00 0.00 0.00 56 1019.8
20260831205003 32 160 1.6 3.2 0.00 0.00 0.00 57 1019.8
20260831204503 32 154 1.6 4.8 0.00 0.00 0.00 56 1019.8
20260831204003 32 165 1.6 4.8 0.00 0.00 0.00 56 1019.8
20260831203503 32 169 1.6 4.8 0.00 0.00 0.00 58 1019.9
20260831203003 32 156 1.6 4.8 0.00 0.00 0.00 55 1019.9
20260831202503 32 142 1.6 6.4 0.00 0.00 0.00 55 1020.1
20260831202003 32 142 1.6 6.4 0.00 0.00 0.00 56 1020.1
20260831201503 32 137 1.6 4.8 0.00 0.00 0.00 58 1020.1
20260831201003 33 172 1.6 4.8 0.00 0.00 0.00 57 1020.3
20260831200503 33 138 3.2 8.0 0.00 0.00 0.00 55 1020.3
20260831200003 33 60 1.6 8.0 0.00 0.00 0.00 56 1020.3
20260831195503 33 21 1.6 6.4 0.00 0.00 0.00 58 1020.3
20260831195003 33 33 1.6 6.4 0.00 0.00 0.00 57 1020.3
20260831194503 33 49 1.6 6.4 0.00 0.00 0.00 57 1020.3
20260831194003 33 108 1.6 4.8 0.00 0.00 0.00 55 1020.5
20260831193503 33 144 1.6 4.8 0.00 0.00 0.00 54 1020.6
20260831193217 33 36 1.6 6.4 0.00 0.00 0.00 55 1020.6
20260831192503 33 23 3.2 6.4 0.00 0.00 0.00 56 1020.6
20260831192003 33 103 3.2 6.4 0.00 0.00 0.00 58 1020.6
20260831191503 33 144 3.2 6.4 0.00 0.00 0.00 55 1020.6
20260831191214 33 57 1.6 6.4 0.00 0.00 0.00 57 1020.6
20260831190717 33 12 3.2 8.0 0.00 0.00 0.00 57 1020.6
20260831190003 33 8 3.2 8.0 0.00 0.00 0.00 55 1020.7
20260831185503 32 116 1.6 6.4 0.00 0.00 0.00 58 1020.8
20260831185003 32 37 3.2 6.4 0.00 0.00 0.00 59 1020.7
20260831184503 32 40 3.2 8.0 0.00 0.00 0.00 58 1020.8
20260831184003 33 69 3.2 8.0 0.00 0.00 0.00 58 1021.0
20260831183503 32 130 1.6 8.0 0.00 0.00 0.00 60 1021.1
20260831183213 32 148 1.6 4.8 0.00 0.00 0.00 59 1021.1
20260831182716 32 58 1.6 8.0 0.00 0.00 0.00 64 1021.1
20260831182003 32 41 1.6 4.8 0.00 0.00 0.00 61 1021.1
20260831181503 32 10 3.2 8.0 0.00 0.00 0.00 57 1021.2
20260831181003 33 6 3.2 8.0 0.00 0.00 0.00 58 1021.2
20260831180503 32 18 1.6 6.4 0.00 0.00 0.00 63 1021.3
20260831180004 32 8 3.2 6.4 0.00 0.00 0.00 64 1021.3
20260831175713 32 28 3.2 6.4 0.00 0.00 0.00 61 1021.4
20260831175004 32 36 1.6 6.4 0.00 0.00 0.00 61 1021.5
20260831174503 32 16 3.2 6.4 0.00 0.00 0.00 68 1021.5
20260831174003 32 38 3.2 6.4 0.00 0.00 0.00 64 1021.5
20260831173503 32 73 3.2 6.4 0.00 0.00 0.00 64 1021.5
20260831173003 32 136 1.6 4.8 0.00 0.00 0.00 66 1021.5
20260831172503 32 5 3.2 6.4 0.00 0.00 0.00 63 1021.6
20260831172214 32 4 3.2 6.4 0.00 0.00 0.00 64 1021.6
20260831171503 32 53 1.6 8.0 0.00 0.00 0.00 66 1021.6
20260831171003 32 90 1.6 6.4 0.00 0.00 0.00 65 1021.7
20260831170503 32 92 1.6 6.4 0.00 0.00 0.00 66 1021.8
20260831170005 31 50 1.6 8.0 0.00 0.00 0.00 66 1021.7
20260831165503 31 53 1.6 8.0 0.00 0.00 0.00 65 1021.8
20260831165003 31 31 3.2 6.4 0.00 0.00 0.00 65 1021.9
20260831164503 31 26 1.6 6.4 0.00 0.00 0.00 65 1022.0
20260831164003 31 95 1.6 4.8 0.00 0.00 0.00 68 1022.0
20260831163503 31 129 1.6 4.8 0.00 0.00 0.00 70 1022.0
20260831163003 31 55 3.2 6.4 0.00 0.00 0.00 69 1022.0
20260831162503 31 41 3.2 6.4 0.00 0.00 0.00 66 1022.1
20260831162003 31 47 1.6 6.4 0.00 0.00 0.00 63 1022.1
20260831161503 31 53 1.6 4.8 0.00 0.00 0.00 70 1022.1
20260831161003 30 121 1.6 6.4 0.00 0.00 0.00 68 1022.1
20260831160503 30 53 1.6 6.4 0.00 0.00 0.00 70 1022.1
20260831160217 30 15 3.2 6.4 0.00 0.00 0.00 68 1022.1
20260831155715 30 3 3.2 6.4 0.00 0.00 0.00 71 1022.1
20260831155003 30 61 1.6 6.4 0.00 0.00 0.00 73 1022.1
20260831154503 30 141 1.6 4.8 0.00 0.00 0.00 73 1022.1
20260831154003 30 95 1.6 4.8 0.00 0.00 0.00 74 1022.2
20260831153503 30 7 1.6 8.0 0.00 0.00 0.00 73 1022.2
20260831153003 29 9 1.6 9.7 0.00 0.00 0.00 77 1022.2
20260831152712 29 24 1.6 9.7 0.00 0.00 0.00 75 1022.2
20260831152003 28 35 1.6 8.0 0.00 0.00 0.00 78 1022.3
20260831151503 28 8 3.2 8.0 0.00 0.00 0.00 77 1022.3
20260831151003 28 9 3.2 8.0 0.00 0.00 0.00 78 1022.3
20260831150503 28 98 1.6 6.4 0.00 0.00 0.00 77 1022.4
20260831150212 28 70 1.6 6.4 0.00 0.00 0.00 78 1022.4
20260831145715 28 12 1.6 6.4 0.00 0.00 0.00 81 1022.4
20260831145003 27 55 1.6 4.8 0.00 0.00 0.00 81 1022.4
20260831144503 27 112 1.6 4.8 0.00 0.00 0.00 82 1022.4
20260831144003 27 77 1.6 6.4 0.00 0.00 0.00 82 1022.4
20260831143503 27 43 1.6 8.0 0.00 0.00 0.00 83 1022.4
20260831143004 26 27 1.6 8.0 0.00 0.00 0.00 82 1022.3
20260831142503 26 41 1.6 6.4 0.00 0.00 0.00 83 1022.3
20260831142003 26 95 1.6 8.0 0.00 0.00 0.00 84 1022.3
20260831141503 26 27 3.2 8.0 0.00 0.00 0.00 85 1022.3
20260831141217 26 9 3.2 6.4 0.00 0.00 0.00 86 1022.2
20260831140503 25 4 1.6 6.4 0.00 0.00 0.00 86 1022.3
20260831140003 25 15 1.6 6.4 0.00 0.00 0.00 87 1022.3
20260831135503 25 42 1.6 6.4 0.00 0.00 0.00 88 1022.3
20260831135003 25 112 1.6 6.4 0.00 0.00 0.00 90 1022.2
20260831134717 24 73 1.6 6.4 0.00 0.00 0.00 90 1022.2
20260831134003 24 31 1.6 6.4 0.00 0.00 0.00 92 1022.2
20260831133503 23 63 1.6 3.2 0.00 0.00 0.00 93 1022.1
20260831133003 23 34 1.6 6.4 0.00 0.00 0.00 94 1022.1
20260831132503 23 150 1.6 6.4 0.00 0.00 0.00 94 1021.9
20260831132003 23 167 1.6 3.2 0.00 0.00 0.00 94 1022.0
20260831131503 23 0 0.0 3.2 0.00 0.00 0.00 94 1022.0
20260831131003 23 0 0.0 1.6 0.00 0.00 0.00 94 1022.0
20260831130503 23 0 0.0 1.6 0.00 0.00 0.00 94 1022.0
20260831130214 22 0 0.0 1.6 0.00 0.00 0.00 94 1022.0
20260831125503 22 0 0.0 3.2 0.00 0.00 0.00 94 1022.2
20260831125003 22 0 0.0 3.2 0.00 0.00 0.00 94 1022.1
20260831124503 22 0 0.0 1.6 0.00 0.00 0.00 94 1022.1
20260831124216 21 0 0.0 1.6 0.00 0.00 0.00 94 1022.0
20260831123503 21 0 0.0 1.6 0.00 0.00 0.00 94 1022.1
20260831123003 21 0 0.0 1.6 0.00 0.00 0.00 93 1022.0
20260831122503 21 0 0.0 1.6 0.00 0.00 0.00 93 1022.0
20260831122003 21 0 0.0 3.2 0.00 0.00 0.00 93 1022.1
20260831121715 21 0 0.0 3.2 0.00 0.00 0.00 93 1022.0
20260831121003 20 0 0.0 1.6 0.00 0.00 0.00 93 1022.0
20260831120503 20 0 0.0 1.6 0.00 0.00 0.00 93 1022.0
20260831120003 20 0 0.0 1.6 0.00 0.00 0.00 93 1022.1
20260831115717 20 0 0.0 1.6 0.00 0.00 0.00 93 1022.1
20260831115003 20 0 0.0 1.6 0.00 0.00 0.00 92 1022.1
20260831114503 20 332 1.6 3.2 0.00 0.00 0.00 92 1022.1
20260831114003 20 326 1.6 3.2 0.00 0.00 0.00 92 1022.1
20260831113503 20 0 0.0 1.6 0.00 0.00 0.00 92 1022.0
20260831113003 20 0 0.0 1.6 0.00 0.00 0.00 92 1022.0
20260831112503 20 0 0.0 1.6 0.00 0.00 0.00 92 1022.0
20260831112003 20 0 0.0 1.6 0.00 0.00 0.00 92 1021.9
20260831111503 20 0 0.0 1.6 0.00 0.00 0.00 92 1021.9
20260831111003 20 0 0.0 1.6 0.00 0.00 0.00 92 1021.9
20260831110503 20 0 0.0 1.6 0.00 0.00 0.00 92 1021.9
20260831110003 20 0 0.0 1.6 0.00 0.00 0.00 92 1021.9
20260831105713 20 0 0.0 1.6 0.00 0.00 0.00 92 1021.9
20260831105005 20 0 0.0 1.6 0.00 0.00 0.00 92 1021.9
20260831104503 20 0 0.0 3.2 0.00 0.00 0.00 92 1021.9
20260831104003 20 0 0.0 3.2 0.00 0.00 0.00 92 1021.8
20260831103503 20 0 0.0 1.6 0.00 0.00 0.00 92 1021.7
20260831103213 20 0 0.0 1.6 0.00 0.00 0.00 92 1021.7
20260831102503 20 0 0.0 1.6 0.00 0.00 0.00 92 1021.6
20260831102008 20 0 0.0 1.6 0.00 0.00 0.00 92 1021.6
20260831101508 20 0 0.0 1.6 0.00 0.00 0.00 92 1021.6
20260831101008 20 0 0.0 1.6 0.00 0.00 0.00 92 1021.6
20260831100508 20 0 0.0 1.6 0.00 0.00 0.00 92 1021.6
20260831100004 20 0 0.0 1.6 0.00 0.00 0.00 92 1021.6
20260831095508 20 0 0.0 1.6 0.00 0.00 0.00 92 1021.6
20260831095003 20 0 0.0 1.6 0.00 0.00 0.00 92 1021.5
20260831094503 20 0 0.0 1.6 0.00 0.00 0.00 92 1021.5
20260831094003 20 0 0.0 1.6 0.00 0.00 0.00 92 1021.6
20260831093503 20 0 0.0 1.6 0.00 0.00 0.00 92 1021.5
20260831093003 21 0 0.0 1.6 0.00 0.00 0.00 92 1021.4
20260831092503 21 0 0.0 1.6 0.00 0.00 0.00 92 1021.4
20260831092003 20 0 0.0 1.6 0.00 0.00 0.00 92 1021.3
20260831091505 20 0 0.0 1.6 0.00 0.00 0.00 92 1021.3
20260831091003 20 0 0.0 1.6 0.00 0.00 0.00 92 1021.2
20260831090713 20 0 0.0 1.6 0.00 0.00 0.00 92 1021.2
20260831090003 20 0 0.0 1.6 0.00 0.00 0.00 92 1021.3
20260831085503 20 0 0.0 1.6 0.00 0.00 0.00 92 1021.3
20260831085003 20 0 0.0 1.6 0.00 0.00 0.00 91 1021.3
20260831084503 20 0 0.0 1.6 0.00 0.00 0.00 91 1021.4
20260831084003 20 0 0.0 0.0 0.00 0.00 0.00 91 1021.3
20260831083503 20 0 0.0 1.6 0.00 0.00 0.00 91 1021.3
20260831083003 20 0 0.0 1.6 0.00 0.00 0.00 91 1021.3
20260831082503 21 0 0.0 0.0 0.00 0.00 0.00 91 1021.3
20260831082003 21 0 0.0 1.6 0.00 0.00 0.00 91 1021.2
20260831081503 21 0 0.0 1.6 0.00 0.00 0.00 91 1021.2
20260831081216 21 0 0.0 1.6 0.00 0.00 0.00 91 1021.3
20260831080503 21 0 0.0 3.2 0.00 0.00 0.00 91 1021.2
20260831080003 21 0 0.0 1.6 0.00 0.00 0.00 92 1021.2
20260831075715 21 0 0.0 1.6 0.00 0.00 0.00 92 1021.1
20260831075003 21 0 0.0 1.6 0.00 0.00 0.00 92 1021.2
20260831074503 21 0 0.0 1.6 0.00 0.00 0.00 91 1021.2
20260831074003 21 0 0.0 1.6 0.00 0.00 0.00 91 1021.3
20260831073717 21 0 0.0 1.6 0.00 0.00 0.00 91 1021.2
20260831073003 21 0 0.0 1.6 0.00 0.00 0.00 91 1021.3
20260831072503 21 0 0.0 1.6 0.00 0.00 0.00 91 1021.3
20260831072003 21 0 0.0 1.6 0.00 0.00 0.00 91 1021.3
20260831071503 21 0 0.0 1.6 0.00 0.00 0.00 91 1021.4
20260831071003 21 0 0.0 1.6 0.00 0.00 0.00 91 1021.4
20260831070503 21 0 0.0 1.6 0.00 0.00 0.00 91 1021.4
20260831070003 21 0 0.0 1.6 0.00 0.00 0.00 91 1021.5
20260831065503 21 0 0.0 3.2 0.00 0.00 0.00 91 1021.5
20260831065003 21 0 0.0 3.2 0.00 0.00 0.00 91 1021.6
20260831064503 21 0 0.0 1.6 0.00 0.00 0.00 91 1021.6
20260831064003 21 0 0.0 1.6 0.00 0.00 0.00 91 1021.6
20260831063717 21 0 0.0 3.2 0.00 0.00 0.00 91 1021.6
20260831063003 21 0 0.0 3.2 0.00 0.00 0.00 91 1021.6
20260831062503 21 0 0.0 1.6 0.00 0.00 0.00 91 1021.6
20260831062003 21 0 0.0 1.6 0.00 0.00 0.00 91 1021.6
20260831061503 21 159 1.6 1.6 0.00 0.00 0.00 91 1021.7
20260831061003 21 160 1.6 3.2 0.00 0.00 0.00 91 1021.7
20260831060503 21 0 0.0 3.2 0.00 0.00 0.00 91 1021.7
20260831060004 21 0 0.0 1.6 0.00 0.00 0.00 91 1021.6
20260831055503 21 0 0.0 1.6 0.00 0.00 0.00 90 1021.7
20260831055003 21 0 0.0 1.6 0.00 0.00 0.00 90 1021.6
20260831054717 21 0 0.0 1.6 0.00 0.00 0.00 90 1021.6
20260831054003 21 0 0.0 1.6 0.00 0.00 0.00 90 1021.6
20260831053503 21 0 0.0 1.6 0.00 0.00 0.00 90 1021.7
20260831053216 21 0 0.0 1.6 0.00 0.00 0.00 90 1021.6
20260831052503 21 0 0.0 1.6 0.00 0.00 0.00 90 1021.5
20260831052003 21 0 0.0 1.6 0.00 0.00 0.00 90 1021.6
20260831051503 22 0 0.0 1.6 0.00 0.00 0.00 90 1021.6
20260831051003 22 0 0.0 1.6 0.00 0.00 0.00 90 1021.6
20260831050503 22 0 0.0 1.6 0.00 0.00 0.00 90 1021.6
20260831050005 22 0 0.0 1.6 0.00 0.00 0.00 90 1021.6
20260831045503 22 0 0.0 1.6 0.00 0.00 0.00 90 1021.6
20260831045003 22 0 0.0 1.6 0.00 0.00 0.00 91 1021.7
20260831044503 22 155 1.6 3.2 0.00 0.00 0.00 90 1021.7
20260831044003 22 146 1.6 3.2 0.00 0.00 0.00 91 1021.7
20260831043713 22 141 1.6 1.6 0.00 0.00 0.00 91 1021.7
20260831043003 22 0 0.0 1.6 0.00 0.00 0.00 90 1021.8
20260831042503 22 0 0.0 1.6 0.00 0.00 0.00 90 1021.9
20260831042003 22 0 0.0 1.6 0.00 0.00 0.00 90 1021.8
20260831041503 22 0 0.0 1.6 0.00 0.00 0.00 90 1021.9
20260831041003 22 0 0.0 1.6 0.00 0.00 0.00 90 1022.0
20260831040503 22 0 0.0 1.6 0.00 0.00 0.00 90 1022.0
20260831040020 22 0 0.0 1.6 0.00 0.00 0.00 90 1022.0
20260831035503 22 0 0.0 1.6 0.00 0.00 0.00 90 1022.0
20260831035003 22 0 0.0 1.6 0.00 0.00 0.00 89 1022.0
20260831034503 22 0 0.0 1.6 0.00 0.00 0.00 90 1022.0
20260831034003 22 0 0.0 1.6 0.00 0.00 0.00 90 1021.9
20260831033503 22 144 1.6 3.2 0.00 0.00 0.00 89 1022.0
20260831033003 22 148 1.6 3.2 0.00 0.00 0.00 89 1022.1
20260831032503 22 0 0.0 3.2 0.00 0.00 0.00 89 1022.1
20260831032003 22 0 0.0 1.6 0.00 0.00 0.00 89 1022.2
20260831031716 22 0 0.0 1.6 0.00 0.00 0.00 89 1022.2
20260831031003 22 0 0.0 1.6 0.00 0.00 0.00 89 1022.2
20260831030503 22 0 0.0 1.6 0.00 0.00 0.00 89 1022.2
20260831030003 23 0 0.0 1.6 0.00 0.00 0.00 88 1022.1
20260831025503 23 0 0.0 1.6 0.00 0.00 0.00 89 1022.1
20260831025003 23 0 0.0 1.6 0.00 0.00 0.00 89 1022.1
20260831024503 23 0 0.0 1.6 0.00 0.00 0.00 89 1022.1
20260831024003 23 0 0.0 1.6 0.00 0.00 0.00 88 1022.2
20260831023503 23 0 0.0 1.6 0.00 0.00 0.00 88 1022.2
20260831023003 23 0 0.0 1.6 0.00 0.00 0.00 88 1022.2
20260831022503 23 0 0.0 0.0 0.00 0.00 0.00 88 1022.2
20260831022003 23 0 0.0 1.6 0.00 0.00 0.00 88 1022.2
20260831021503 23 0 0.0 1.6 0.00 0.00 0.00 88 1022.2
20260831021003 23 0 0.0 1.6 0.00 0.00 0.00 88 1022.1
20260831020503 23 0 0.0 1.6 0.00 0.00 0.00 87 1022.1
20260831020003 23 0 0.0 1.6 0.00 0.00 0.00 88 1022.0
20260831015503 23 0 0.0 1.6 0.00 0.00 0.00 87 1022.0
20260831015003 23 0 0.0 1.6 0.00 0.00 0.00 87 1022.0
20260831014503 23 0 0.0 1.6 0.00 0.00 0.00 87 1021.9
20260831014003 23 0 0.0 1.6 0.00 0.00 0.00 87 1021.9
20260831013715 23 0 0.0 1.6 0.00 0.00 0.00 87 1021.8
20260831013003 24 0 0.0 1.6 0.00 0.00 0.00 87 1021.9
20260831012503 24 0 0.0 1.6 0.00 0.00 0.00 87 1021.9
20260831012003 24 0 0.0 1.6 0.00 0.00 0.00 87 1021.9
20260831011503 24 0 0.0 1.6 0.00 0.00 0.00 87 1021.9
20260831011003 24 0 0.0 1.6 0.00 0.00 0.00 87 1021.7
20260831010503 24 0 0.0 1.6 0.00 0.00 0.00 87 1021.7
20260831010216 24 0 0.0 1.6 0.00 0.00 0.00 87 1021.6
20260831005714 24 160 1.6 1.6 0.00 0.00 0.00 86 1021.6
20260831005003 24 165 1.6 1.6 0.00 0.00 0.00 86 1021.6
20260831004503 25 158 1.6 3.2 0.00 0.00 0.00 86 1021.6
20260831004003 25 153 1.6 3.2 0.00 0.00 0.00 86 1021.5
20260831003503 25 151 1.6 3.2 0.00 0.00 0.00 86 1021.4
20260831003003 25 0 0.0 1.6 0.00 0.00 0.00 85 1021.4
20260831002503 25 0 0.0 1.6 0.00 0.00 0.00 85 1021.3
20260831002003 25 137 1.6 1.6 0.00 0.00 0.00 85 1021.3
20260831001503 25 141 1.6 1.6 0.00 0.00 0.00 85 1021.3
20260831001003 25 144 1.6 1.6 0.00 0.00 0.00 84 1021.3
20260831000714 25 0 0.0 1.6 0.00 0.00 0.00 84 1021.2
20260831000003 26 150 1.6 3.2 0.00 0.00 0.00 83 1021.3
20260830235503 26 0 0.0 3.2 0.00 0.00 0.00 82 1021.3
20260830235003 26 0 0.0 1.6 0.00 0.00 0.00 82 1021.4
20260830234503 26 0 0.0 1.6 0.00 0.00 0.00 81 1021.3
20260830234214 26 0 0.0 1.6 0.00 0.00 0.00 81 1021.3
20260830233503 26 0 0.0 3.2 0.00 0.00 0.00 81 1021.2
20260830233214 26 0 0.0 3.2 0.00 0.00 0.00 80 1021.3
20260830232503 27 151 1.6 3.2 0.00 0.00 0.00 79 1021.4
20260830232215 27 151 1.6 3.2 0.00 0.00 0.00 79 1021.4
20260830231713 27 163 1.6 3.2 0.00 0.00 0.00 78 1021.3
20260830231216 27 165 1.6 3.2 0.00 0.00 0.00 78 1021.3
20260830230505 27 164 1.6 3.2 0.00 0.00 0.00 78 1021.3
20260830230218 27 161 1.6 3.2 0.00 0.00 0.00 78 1021.3
20260830225715 27 162 1.6 3.2 0.00 0.00 0.00 77 1021.3
20260830225003 27 165 1.6 3.2 0.00 0.00 0.00 76 1021.2
20260830224716 27 164 1.6 3.2 0.00 0.00 0.00 76 1021.2
20260830224003 28 170 1.6 3.2 0.00 0.00 0.00 75 1021.2
20260830223503 28 166 1.6 3.2 0.00 0.00 0.00 75 1021.2
20260830223003 28 0 0.0 3.2 0.00 0.00 0.00 74 1021.2
20260830222504 28 157 1.6 3.2 0.00 0.00 0.00 74 1021.2
20260830222003 28 155 1.6 3.2 0.00 0.00 0.00 73 1021.2
20260830221503 28 156 1.6 3.2 0.00 0.00 0.00 72 1021.1
20260830221217 28 153 1.6 3.2 0.00 0.00 0.00 73 1021.1
20260830220503 28 154 1.6 3.2 0.00 0.00 0.00 72 1021.2
20260830220003 29 120 1.6 4.8 0.00 0.00 0.00 72 1021.2
20260830215716 29 74 1.6 4.8 0.00 0.00 0.00 72 1021.2
20260830215004 29 92 1.6 4.8 0.00 0.00 0.00 71 1021.1
20260830214503 29 119 1.6 4.8 0.00 0.00 0.00 71 1021.1
20260830214003 29 128 1.6 4.8 0.00 0.00 0.00 71 1021.1
20260830213503 29 1 1.6 4.8 0.00 0.00 0.00 70 1021.1
20260830213003 29 85 1.6 3.2 0.00 0.00 0.00 69 1021.2
20260830212503 29 130 1.6 3.2 0.00 0.00 0.00 70 1021.3
20260830212003 29 115 1.6 3.2 0.00 0.00 0.00 70 1021.2
20260830211503 30 70 1.6 6.4 0.00 0.00 0.00 70 1021.2
20260830211213 30 90 1.6 6.4 0.00 0.00 0.00 69 1021.2